Location: Buchloe
(48.0161°N, 10.7316°E)
Time: 11:00:23
(UTC+01:00)

ISS - Pass Details

Date: 06 December 2021
Orbit: 413 x 422 km, 51.6° (Epoch: 22 January)

Event Time Altitude Azimuth Distance (km) Brightness Sun altitude
Rises 18:05:39 0° 291° (WNW) 2,374 1.0 -16.2°
Reaches altitude 10° 18:07:51 10° 282° (WNW) 1,505 0.0 -16.5°
Maximum altitude 18:10:58 35° 215° (SW) 698 -2.2 -17.0°
Enters shadow 18:13:46 12° 150° (SSE) 1,383 -1.3 -17.5°
